Regional Weather Roundup
Issued by NWS Charleston, SC

Current Version | Previous Version | Graphics & Text | Print | Product List | Glossary On
Versions: 1 2 3 4 5 6 7 8 9 10 11 12 13 14 15 16 17 18 19 20 21 22 23 24 25 26 27 28 29 30 31 32 33 34 35 36 37 38 39 40 41 42 43 44 45 46 47 48 49 50
000
ASUS42 KCHS 250410
RWRCHS
REGIONAL WEATHER ROUNDUP
NATIONAL WEATHER SERVICE CHARLESTON SC
1200 AM EDT FRI JUL 25 2014

NOTE: "FAIR" INDICATES FEW OR NO CLOUDS BELOW 12,000 FEET WITH NO
SIGNIFICANT WEATHER AND/OR OBSTRUCTIONS TO VISIBILITY.

NOT ALL STATIONS ARE QUALITY CONTROLLED BY THE NATIONAL
WEATHER SERVICE. USE DATA WITH CAUTION...ESPECIALLY
DEWPOINT OBSERVATIONS.

SCZ027-030-031-034>040-042>050-250500-
...SOUTH CAROLINA...

CITY           SKY/WX    TMP DP  RH WIND       PRES   REMARKS
N CHARLESTON   PTCLDY    84  78  82 SW7       29.95R HX  95
WATERFRONT PRK   N/A     84 N/A N/A SW9         N/A
FORT JOHNSON   NOT AVBL
MOUNT PLEASANT FAIR      84  79  84 SW7       29.95R HX  96
JOHNS ISLAND   PTCLDY    84  75  74 SW9       29.95S HX  92
PINOPOLIS        N/A     84  75  74 SW6       29.85S HX  92
MONCKS CORNER    N/A     81  79  94 CALM      29.94S
SUMMERVILLE    NOT AVBL
BEAUFORT MCAS  CLEAR     83  78  85 W5        29.96R HX  93
BEAUFORT ARPT  FAIR      82  79  89 SW3       29.95R HX  93
HILTON HEAD IS PTCLDY    84  81  89 S9        29.97S HX  98
GEORGETOWN     NOT AVBL
WALTERBORO     PTCLDY    81  72  74 CALM      29.95S
ORANGEBURG     PTCLDY    79  71  76 S5        29.94S
BARNWELL       FAIR      79  72  78 W3        29.95S
AIKEN          FAIR      77  77 100 CALM      29.98S
MANNING        FAIR      79  79 100 CALM      29.94R
KINGSTREE      NOT AVBL
COLUMBIA       PTCLDY    80  71  74 CALM      29.93R
SUMTER         CLEAR     76  76  99 S2        29.92R
FLORENCE       MOCLDY    75  72  90 CALM      29.93R
MYRTLE BEACH   MOCLDY    75  70  83 W6        29.94F
N MYRTLE BEACH LGT RAIN  75  71  87 VRB5      29.93S

$$

GAZ063-065-086>088-099>101-113>116-118-119-134-136>141-150-250500-
...GEORGIA...

CITY           SKY/WX    TMP DP  RH WIND       PRES   REMARKS
SAVANNAH ARPT  MOCLDY    82  71  69 SW8       29.98R
HUNTER AAF     MOCLDY    82  72  72 W8        29.95R
FORT STEWART   MOCLDY    82  71  70 SW7       29.97R
STATESBORO     NOT AVBL
SYLVANIA       CLEAR     78  76  94 CALM      29.97R
CLAXTON        FAIR      81  77  89 CALM      29.98R
THOMSON        PTCLDY    77  77 100 CALM      30.00R
AUGUSTA-BUSH   CLEAR     79  71  76 SW6       29.93F
AUGUSTA-DANIEL CLEAR     80  71  74 CALM      29.96S
SWAINSBORO     FAIR      82  73  74 W6        29.98S
VIDALIA          N/A     81  73  78 SW7       29.99R
ALMA           PTCLDY    77  73  87 SW5       29.99S
WAYCROSS       PTCLDY    79  77  94 W5        30.00S
JESUP          NOT AVBL
BRUNSWICK      PTCLDY    79  72  78 CALM      30.00S
SAINT SIMONS   PTCLDY    81  72  74 SW6       29.99R

$$

SCZ027-028-034-036>038-045-046-048>050-GAZ119-141-250500-
...LAKE AND SUPPLEMENTAL COASTAL OBSERVATIONS...

STATION/POSITION TIME  TEMP    WIND        PRES    WAVE   SWELL
                       AIR SEA DIR/SP/G            HT/PER HT/PER/DIR
                 (UTC) (F)     (DEG/KT/KT) (MB)    (FT/S) (FT/S/D)
UPR LAKE MARION  NOT AVBL
WINYAH BAY       0300   83     220/  9     1013.0S
LAKE MURRAY      0300   82     250/  5/  6 1012.9R
ACE BASIN NERRS  0300   83     200/  1     1014.0S
FORT PULASKI     0400   84     230/  7/ 12 1015.0R
SAPELO ISLAND    0300   83     250/  7     1016.0S

$$

ANZ835-935-AMZ111-154-330-350-352-354-374-450-454-472-250500-
...C-MAN AND BUOY OBSERVATIONS...

STATION/POSITION TIME  TEMP    WIND        PRES    WAVE   SWELL
                       AIR SEA DIR/SP/G            HT/PER HT/PER/DIR
                 (UTC) (F)     (DEG/KT/KT) (MB)    (FT/S) (FT/S/D)
FOLLY BEACH CMAN 0300   84     220/ 15/ 19 1014.5R
BUOY 41004       0400   83 83  220/ 19/ 21 1013.4R   4/ 5   2/ 8
BUOY 41008       0400   82 85  210/ 14/ 17 1015.3R   4/ 5
5E ST. MARYS GA  0300      84                N/A     3/ 5
FRYING PAN BUOY  NOT AVBL
BUOY 41025       0400          VRB 14/ 14  1012.0R   4/ 4   2/160/ 7
CAPE LOOKOUT NC  0300   78     190/ 13/ 17 1011.8F
BUOY 41002       0320   82 82  230/ 19/ 23 1016.6R   5/ 6   2/180/12
BUOY 41010       0400   83 83  200/ 14/ 16 1018.1S   3/ 7   2/140/ 7
BUOY 41012       NOT AVBL
ST AUGUSTINE FL  0400   80     210/  5/  6 1017.5R
CAPERS NEARSHORE 0300   84     240/ 16/ 17   N/A
FRIPP NEARSHORE  NOT AVBL


$$


USA.gov is the U.S. government's official web portal to all federal, state and local government web resources and services.